Theta_e
318 325 333 333 335 336 335 336 336 336 336 337 338 339 339 341 341 342 343 346 349 348 344 345 345 346 347 348 349 349 348 348 347 348 348 345 343 344 347 346 347 342 344
318 323 332 331 331 332 331 331 331 332 332 333 334 335 335 336 337 339 339 341 345 348 348 346 345 346 347 349 348 348 348 348 345 344 345 346 343 341 346 346 347 344 348
317 321 323 328 328 328 327 327 327 327 327 327 328 328 328 329 331 333 335 336 339 344 347 348 347 346 347 347 348 347 347 347 345 343 343 337 334 340 344 347 346 346 347
314 316 319 326 325 325 325 324 324 324 324 325 325 324 324 325 325 325 328 331 333 337 341 343 343 343 344 345 345 346 346 346 345 342 339 338 335 340 341 348 346 347 347
311 315 319 324 323 323 322 322 322 322 322 321 321 322 322 322 322 322 323 325 326 329 333 336 336 336 338 341 344 345 346 345 343 340 339 338 336 339 343 348 347 348 348
308 313 319 321 321 320 320 320 320 320 320 319 319 319 319 319 320 320 320 320 321 322 325 328 329 329 330 334 338 341 341 340 340 340 340 339 338 340 344 347 349 347 346
305 308 313 319 318 318 317 317 317 317 317 317 317 317 317 317 316 316 317 318 319 319 320 321 322 322 324 326 329 331 333 333 333 337 337 337 337 344 345 347 349 348 348
303 305 308 314 314 314 314 314 315 315 315 315 315 314 314 313 313 313 315 316 318 318 318 319 319 320 321 322 323 323 323 324 323 331 336 337 338 343 344 346 348 349 348
300 301 301 303 306 310 310 311 312 312 312 311 310 310 309 309 310 310 310 313 315 315 316 317 317 316 317 317 319 320 319 324 322 323 331 336 338 343 346 346 346 348 347
296 296 296 299 298 297 299 308 308 308 308 307 307 306 304 304 305 306 307 310 311 312 313 313 313 314 313 313 313 314 315 321 320 326 330 334 339 343 345 345 345 346 346
295 294 294 294 295 294 297 300 302 304 304 302 301 302 298 295 297 298 303 306 308 309 309 310 311 310 308 306 308 309 310 308 310 317 326 331 333 340 344 344 345 344 345
291 292 293 292 292 293 297 293 293 295 293 293 293 294 295 293 296 297 298 301 303 304 306 308 308 306 303 299 300 304 303 304 307 308 312 319 321 327 333 337 342 343 344
292 292 292 292 292 292 292 291 291 291 291 291 292 293 292 293 292 293 292 293 293 298 296 298 298 298 298 298 299 299 301 302 303 305 308 312 315 318 324 328 333 337 342
291 291 292 291 291 291 291 290 290 291 289 289 291 292 291 290 290 291 291 292 292 293 293 294 295 296 297 299 299 300 300 300 301 303 305 309 312 316 319 322 326 330 335
291 291 291 290 290 290 290 289 289 289 289 289 290 291 291 290 289 290 290 291 291 292 292 293 294 295 296 298 298 299 298 299 300 302 303 307 309 313 316 319 322 325 328
293 291 290 290 289 290 288 288 288 288 288 289 289 290 291 291 289 289 289 290 290 291 292 293 293 294 295 296 296 298 298 298 299 299 301 301 306 309 312 316 319 324 327
292 291 290 289 289 288 288 287 287 288 289 287 288 289 290 291 289 288 288 288 289 291 292 292 292 294 294 295 295 296 297 297 297 298 299 300 301 305 307 311 314 317 320
290 290 290 292 289 288 287 287 287 287 286 287 287 288 289 291 290 288 288 288 289 290 290 290 290 290 291 292 293 293 294 295 295 296 298 299 300 301 304 308 310 313 316
290 289 288 288 288 288 287 287 287 287 286 285 285 287 288 289 290 288 288 288 289 289 288 288 288 289 289 291 292 293 292 292 293 296 296 297 299 301 301 305 309 310 312
287 288 288 288 287 287 286 285 285 284 284 284 284 286 287 288 289 288 287 287 288 287 286 287 287 289 289 290 292 291 290 291 292 292 293 296 298 299 300 302 302 304 310
285 286 286 286 285 284 283 282 282 281 282 283 284 286 287 287 288 286 286 286 286 286 286 287 287 287 288 290 288 287 289 290 291 291 292 292 293 296 296 298 300 301 301
284 284 284 285 284 283 283 281 281 281 281 282 284 285 286 286 287 287 286 285 285 285 285 286 287 287 288 288 286 286 283 287 289 290 289 290 289 291 292 295 295 296 296
282 282 283 283 283 282 282 282 281 281 281 281 282 282 283 285 286 286 285 284 284 284 284 285 287 286 284 286 287 286 282 282 285 287 288 288 289 290 288 291 292 293 293
281 281 282 283 282 282 282 280 279 279 279 280 280 281 282 283 284 284 284 283 283 284 285 286 287 286 286 284 287 290 289 287 284 282 285 288 288 287 288 287 290 291 291
281 280 280 281 281 282 281 280 279 278 279 279 279 279 280 281 282 283 283 282 282 283 283 285 285 284 285 285 285 285 286 287 287 284 281 284 287 287 286 288 288 289 290
280 280 280 280 281 281 280 280 279 278 278 278 278 278 279 280 281 281 282 282 283 284 284 284 284 284 284 284 285 284 285 285 285 284 283 284 284 286 287 288 287 287 290
Wind_Speed
3 5 8 7 8 9 8 10 10 10 11 13 13 15 15 16 16 15 15 15 14 9 1 2 1 2 3 3 5 6 5 5 6 5 5 5 5 4 6 6 5 4 6
6 5 9 10 9 10 9 10 11 11 11 13 13 14 14 14 13 15 15 15 14 14 9 6 4 6 7 5 6 7 7 7 6 6 5 4 5 5 6 7 8 4 7
6 6 6 9 10 10 10 11 11 11 11 13 13 14 14 14 13 13 12 13 12 14 15 13 9 6 10 10 9 8 7 7 8 7 6 3 3 5 6 8 8 5 7
7 6 6 9 8 9 10 11 10 11 12 12 13 13 13 13 13 13 13 12 13 13 13 15 16 17 17 9 9 7 7 7 7 6 4 4 4 6 7 9 10 9 9
7 6 6 9 9 9 9 10 10 11 11 12 13 13 13 14 13 13 13 14 14 14 15 15 15 13 11 11 11 11 11 10 5 5 5 5 4 5 8 10 11 11 9
6 6 8 9 9 9 9 10 10 11 12 12 12 12 13 13 14 14 14 14 13 13 13 12 12 12 12 12 14 12 12 12 10 4 5 6 5 8 10 10 10 10 10
6 5 6 9 9 9 9 9 10 11 11 12 13 13 13 14 14 14 14 13 13 13 12 12 12 12 13 13 12 13 13 12 7 5 5 5 5 12 13 12 12 12 12
8 6 6 8 8 9 8 9 10 10 11 12 13 13 13 13 13 14 15 15 14 14 13 13 12 13 13 13 13 12 13 12 7 5 6 5 7 13 15 15 13 13 14
6 7 6 5 7 9 9 9 9 10 11 12 12 13 13 13 13 14 14 14 14 14 14 14 14 14 14 14 14 14 14 12 5 4 6 4 7 14 17 16 15 15 16
6 6 6 5 5 5 4 8 9 10 10 11 12 12 13 13 13 14 14 14 14 13 13 13 14 14 14 15 15 16 15 9 7 6 3 4 11 16 18 18 15 15 17
3 5 6 6 5 4 4 5 8 9 10 10 9 11 8 5 6 8 12 13 14 13 14 13 13 13 14 13 14 15 13 5 6 5 5 9 16 17 18 19 18 16 17
5 4 5 6 5 4 4 4 4 5 4 4 5 5 4 5 5 7 9 13 14 14 14 14 13 13 10 5 5 9 4 6 4 6 5 16 17 18 18 19 19 19 18
7 5 6 6 5 6 4 3 2 2 3 3 5 5 4 4 3 3 3 4 4 9 4 6 6 4 6 5 5 4 5 4 3 4 7 15 18 19 19 19 19 20 19
7 7 6 6 6 5 3 3 2 2 2 2 3 5 4 3 4 4 3 4 4 3 5 5 4 6 6 5 5 5 5 5 4 4 5 14 16 17 18 19 19 20 20
8 7 7 6 6 5 5 3 2 2 3 3 3 4 4 3 4 4 4 4 4 4 3 4 4 4 5 6 5 5 5 5 5 3 3 12 16 17 18 19 20 20 21
9 8 7 6 5 5 4 4 3 2 2 3 3 3 4 3 3 3 4 4 4 4 4 4 4 4 4 5 5 6 6 5 5 5 4 6 16 17 17 18 20 20 21
5 9 9 8 7 6 6 4 3 2 2 2 3 3 3 3 3 3 3 4 4 4 5 5 4 5 5 5 5 5 5 5 6 6 5 5 7 13 16 18 19 20 21
9 11 9 7 7 6 5 3 2 2 2 2 2 3 4 3 3 3 3 4 4 4 4 4 4 5 4 5 5 5 4 5 7 6 5 5 5 5 9 15 17 19 20
10 12 8 7 6 6 4 3 2 3 2 2 2 3 4 4 4 2 3 3 4 3 3 4 3 3 4 5 6 6 5 6 5 4 5 6 6 6 5 11 16 14 16
8 9 8 6 6 5 4 3 2 2 1 2 2 2 4 3 3 2 2 3 4 3 4 4 4 3 3 5 8 7 6 5 4 3 4 4 4 6 6 7 7 7 16
8 8 6 7 4 2 2 2 2 1 2 1 3 3 4 4 4 3 2 3 3 3 4 5 3 4 3 5 3 4 4 4 3 2 3 4 6 6 6 6 5 6 7
5 5 5 5 4 2 2 1 2 1 1 1 1 3 4 5 4 2 3 3 4 3 4 4 4 3 2 7 3 3 5 5 4 5 1 3 5 5 7 6 7 8 7
3 3 4 5 4 3 3 2 1 1 1 1 2 2 3 4 3 3 3 3 4 3 3 4 5 7 4 4 7 2 4 4 9 4 5 3 9 7 5 9 9 9 10
4 3 4 4 4 3 3 2 2 1 1 1 1 2 3 4 2 3 3 4 4 3 4 4 4 4 4 4 3 2 3 2 4 7 3 10 5 7 9 6 8 9 10
4 5 4 4 3 2 3 2 2 2 2 1 1 3 3 2 2 3 3 3 3 3 3 5 4 5 4 5 4 5 5 3 6 7 12 8 10 7 6 8 7 9 9
3 3 4 4 3 3 3 3 3 4 3 2 2 3 2 1 1 2 3 3 3 3 3 3 3 4 4 4 5 6 5 4 4 6 8 11 14 12 10 9 5 6 9
Wind_Direction
193 151 139 126 114 95 86 81 76 65 59 60 60 59 49 50 48 42 35 24 26 36 107 110 71 279 268 267 252 234 203 173 176 176 166 158 154 161 153 156 154 157 176
128 129 138 132 119 105 96 83 72 66 62 58 57 57 60 52 51 48 37 30 16 27 44 50 21 357 325 301 278 255 231 211 207 203 196 188 172 180 183 167 166 191 186
109 105 104 125 121 111 99 84 74 65 59 57 54 55 53 54 49 46 46 36 20 21 28 41 30 2 334 319 296 272 263 241 222 219 215 208 203 202 211 187 185 187 187
106 90 99 118 109 103 98 89 79 69 58 52 49 50 51 50 48 43 44 42 29 19 19 28 20 26 15 332 282 298 301 268 230 226 221 225 237 215 214 207 197 189 196
99 103 109 120 113 102 89 83 77 68 61 54 48 44 45 45 41 36 39 34 33 22 19 15 16 13 358 356 10 13 4 346 270 190 246 240 229 249 223 214 209 203 200
114 112 127 122 110 99 88 78 73 68 61 52 49 49 45 40 39 37 30 27 25 23 15 12 5 359 0 356 1 5 1 2 350 233 214 240 236 255 253 235 216 210 201
112 92 106 113 103 96 86 79 71 67 66 56 52 50 43 39 33 29 25 26 23 20 15 8 1 357 355 357 358 350 349 351 355 320 251 228 231 241 251 255 227 220 210
125 99 78 94 94 91 84 81 79 74 64 58 58 50 44 39 35 30 23 19 22 17 9 5 5 6 3 357 351 350 343 342 337 328 319 274 247 255 254 255 248 221 221
117 110 99 84 84 83 81 77 77 75 71 59 55 50 46 38 32 27 24 18 17 9 9 9 2 358 357 356 358 0 356 343 330 303 304 298 281 274 266 256 254 249 226
136 131 129 108 89 72 59 82 80 78 73 60 56 49 47 38 31 23 17 13 10 6 5 2 360 360 359 356 355 355 349 355 356 332 301 295 299 296 286 279 268 254 240
143 145 138 132 126 108 99 65 64 69 67 57 50 47 40 26 19 23 13 12 8 6 359 358 360 2 359 355 353 351 355 350 346 339 330 349 344 329 310 293 284 268 242
171 167 157 140 145 138 100 73 65 62 56 53 50 49 37 35 19 28 16 13 4 4 359 360 359 359 355 344 343 348 348 338 342 333 325 339 334 329 322 325 320 290 271
179 172 167 151 143 133 120 105 71 61 47 35 37 37 32 31 23 25 11 360 354 3 355 355 352 347 348 346 343 335 332 334 330 325 325 329 329 324 318 317 316 313 307
174 177 174 158 139 124 105 94 95 81 55 39 24 26 28 19 12 8 9 356 358 348 348 344 338 334 343 341 337 334 336 332 331 326 323 329 329 325 321 313 309 309 305
185 178 175 154 144 142 125 112 88 58 47 23 20 11 27 23 11 1 357 352 348 345 345 335 332 331 331 334 334 333 329 327 327 326 317 322 325 323 319 315 311 305 302
182 171 155 158 150 135 120 109 92 65 32 15 0 0 11 27 11 12 355 350 345 342 330 330 327 328 323 323 326 326 321 318 319 315 314 315 317 318 318 317 314 313 309
179 148 157 149 145 139 134 125 116 98 57 12 350 358 21 46 33 4 349 346 337 332 339 344 344 339 334 326 313 311 306 308 310 307 303 301 308 316 318 317 314 313 310
142 156 149 145 138 134 132 122 106 75 60 34 12 4 11 37 25 2 357 349 339 349 357 348 346 331 326 324 317 298 290 288 291 297 301 308 309 312 315 319 319 318 317
147 142 128 125 132 125 109 95 81 71 75 45 21 4 1 355 0 34 6 343 350 353 356 344 335 331 319 320 313 308 294 286 287 301 303 308 311 317 315 319 326 322 319
101 106 113 114 118 106 89 67 46 48 37 8 21 13 355 345 360 32 2 354 356 358 349 342 322 319 302 308 306 300 282 282 283 292 308 316 324 325 332 329 325 315 323
63 92 106 119 124 110 76 86 60 7 321 347 356 359 39 36 19 1 2 6 7 10 341 335 324 330 319 328 331 307 305 308 2 19 339 336 336 341 332 331 335 335 328
94 101 111 126 130 104 107 133 128 146 284 279 349 39 28 11 6 9 30 17 10 1 359 343 334 331 295 11 352 295 349 333 345 327 2 332 345 327 330 330 325 315 311
116 147 151 150 141 125 125 96 51 36 359 350 358 1 352 360 14 46 37 25 3 8 347 345 341 12 353 357 342 0 344 321 337 325 347 357 336 315 314 320 314 311 308
208 191 165 165 164 162 146 127 158 185 228 222 281 303 315 334 46 25 30 33 16 355 4 347 360 346 338 336 330 19 336 341 316 312 329 313 306 324 302 299 305 306 303
188 193 197 195 199 170 162 159 174 205 228 266 292 302 305 312 35 21 36 27 18 7 354 336 346 340 337 322 303 303 300 276 259 271 300 314 312 306 291 293 291 296 292
203 210 214 212 219 178 174 184 205 222 235 243 254 272 285 276 15 0 352 357 345 334 321 305 310 299 294 290 287 286 290 298 291 279 294 304 299 302 300 294 282 280 289